Budapest Ferihegy, Hungary

7:21 PM CET on February 09, 2016 (GMT +0100)
Ferihegy

Weather History for LHBP - October, 2013

Change the Weather History Date:

Thursday, October 10, 2013

  Actual Average Record
Temperature  
Mean Temperature 53 °F -  
Max Temperature 55 °F 55 °F 77 °F (1997)
Min Temperature 51 °F 38 °F 33 °F (2011)
Degree Days  
Heating Degree Days 12    
Growing Degree Days 3 (Base 50)    
Moisture  
Dew Point 53 °F    
Average Humidity 97    
Maximum Humidity 100    
Minimum Humidity 94    
Precipitation  
Precipitation 0.00 in - - ()
Sea Level Pressure  
Sea Level Pressure 29.94 in    
Wind  
Wind Speed 4 mph ()    
Max Wind Speed 10 mph    
Max Gust Speed -    
Visibility 2.4 miles    
Events Rain    
Averages and records for this station are not official NWS values.
T = Trace of Precipitation, MM = Missing Value Source: Averaged Metar Reports

Daily Weather History Graph

Daily Weather History Graph

Search for Another Location

Airport or City:

Trip Planner

Search our weather history database for the weather conditions in past years. The results will help you decide how hot, cold, wet, or windy it might be!

Date:

Astronomy

Oct. 10, 2013 Rise Set
Actual Time 6:54 AM CEST 6:04 PM CEST
Civil Twilight 6:23 AM CEST 6:35 PM CEST
Nautical Twilight 5:48 AM CEST 7:10 PM CEST
Astronomical Twilight 5:12 AM CEST 7:46 PM CEST
Moon 12:45 PM CEST (10/10) 10:07 PM CEST (10/10)
Length of Visible Light 12h 11m
Length of Day
11h 10m
Waxing Crescent, 33% of the Moon is Illuminated
Oct 10
Waxing Crescent
Oct 12
First Quarter
Oct 19
Full
Oct 27
Last Quarter
Nov 3
New

Hourly Weather History & Observations

Time (CEST) Temp. Dew Point Humidity Pressure Visibility Wind Dir Wind Speed Gust Speed Precip Events Conditions
12:00 AM 51.8 °F 51.8 °F 100% 30.04 in 3.7 mi Calm Calm - N/A   Mostly Cloudy
12:30 AM 51.8 °F 50.0 °F 94% 30.01 in 3.7 mi Variable 3.5 mph - N/A   Mostly Cloudy
1:00 AM 51.8 °F 50.0 °F 94% 30.01 in 3.7 mi Calm Calm - N/A Rain Light Rain
1:30 AM 51.8 °F 50.0 °F 94% 30.01 in 3.1 mi Variable 2.3 mph - N/A Rain Light Rain
2:00 AM 51.8 °F 50.0 °F 94% 30.01 in 2.8 mi ESE 4.6 mph - N/A   Overcast
2:30 AM 51.8 °F 51.8 °F 100% 30.01 in 2.8 mi Variable 3.5 mph - N/A Rain Light Rain
3:00 AM 51.8 °F 50.0 °F 94% 29.98 in 1.9 mi Variable 3.5 mph - N/A Rain Rain
3:30 AM 51.8 °F 50.0 °F 94% 29.98 in 1.9 mi Variable 2.3 mph - N/A Rain Rain
4:00 AM 51.8 °F 51.8 °F 100% 29.98 in 1.9 mi Variable 2.3 mph - N/A Rain Light Rain
4:30 AM 51.8 °F 51.8 °F 100% 29.98 in 1.9 mi Variable 2.3 mph - N/A   Overcast
5:00 AM 51.8 °F 51.8 °F 100% 29.98 in 1.9 mi Variable 3.5 mph - N/A   Overcast
5:30 AM 51.8 °F 51.8 °F 100% 29.95 in 1.9 mi Variable 3.5 mph - N/A   Overcast
6:00 AM 51.8 °F 51.8 °F 100% 29.95 in 2.2 mi Variable 1.2 mph - N/A   Overcast
6:30 AM 51.8 °F 51.8 °F 100% 29.95 in 2.5 mi Variable 3.5 mph - N/A   Overcast
7:00 AM 51.8 °F 51.8 °F 100% 29.95 in 2.2 mi East 5.8 mph - N/A   Overcast
7:30 AM 51.8 °F 51.8 °F 100% 29.95 in 2.2 mi Variable 3.5 mph - N/A   Overcast
8:00 AM 51.8 °F 51.8 °F 100% 29.92 in 2.2 mi ESE 5.8 mph - N/A   Overcast
8:30 AM 51.8 °F 51.8 °F 100% 29.95 in 2.2 mi ESE 5.8 mph - N/A Rain Light Rain
9:00 AM 51.8 °F 51.8 °F 100% 29.95 in 2.2 mi East 6.9 mph - N/A Rain Light Rain
9:30 AM 51.8 °F 51.8 °F 100% 29.95 in 2.5 mi East 5.8 mph - N/A   Overcast
10:00 AM 53.6 °F 51.8 °F 94% 29.95 in - East 4.6 mph - N/A   Overcast
10:30 AM 53.6 °F 51.8 °F 94% 29.92 in 2.8 mi East 4.6 mph - N/A   Overcast
11:00 AM 53.6 °F 51.8 °F 94% 29.95 in 2.8 mi Variable 3.5 mph - N/A   Overcast
11:30 AM 53.6 °F 51.8 °F 94% 29.92 in 2.5 mi Variable 3.5 mph - N/A   Overcast
12:00 PM 53.6 °F 53.6 °F 100% 29.95 in 2.2 mi East 4.6 mph - N/A   Overcast
12:30 PM 53.6 °F 53.6 °F 100% 29.92 in 2.2 mi East 4.6 mph - N/A   Overcast
1:00 PM 55.4 °F 53.6 °F 94% 29.92 in 2.5 mi East 5.8 mph - N/A   Overcast
1:30 PM 55.4 °F 53.6 °F 94% 29.92 in 2.5 mi East 6.9 mph - N/A   Overcast
2:00 PM 55.4 °F 53.6 °F 94% 29.92 in 2.5 mi East 8.1 mph - N/A   Overcast
2:30 PM 55.4 °F 53.6 °F 94% 29.92 in 2.5 mi ESE 8.1 mph - N/A   Overcast
3:00 PM 55.4 °F 53.6 °F 94% 29.92 in 2.5 mi ESE 8.1 mph - N/A   Overcast
3:30 PM 55.4 °F 53.6 °F 94% 29.89 in 2.2 mi ESE 6.9 mph - N/A   Overcast
4:00 PM 55.4 °F 55.4 °F 100% 29.89 in 1.9 mi ESE 9.2 mph - N/A   Overcast
4:30 PM 55.4 °F 55.4 °F 100% 29.89 in 1.9 mi ESE 6.9 mph - N/A   Overcast
5:00 PM 55.4 °F 55.4 °F 100% 29.89 in 1.9 mi East 8.1 mph - N/A   Overcast
5:30 PM 55.4 °F 55.4 °F 100% 29.89 in - ESE 8.1 mph - N/A   Overcast
6:00 PM 55.4 °F 53.6 °F 94% 29.89 in 2.5 mi East 8.1 mph - N/A   Overcast
6:30 PM 55.4 °F 53.6 °F 94% 29.89 in 2.5 mi East 8.1 mph - N/A   Overcast
7:00 PM 55.4 °F 53.6 °F 94% 29.92 in 3.1 mi East 8.1 mph - N/A   Overcast
7:30 PM 53.6 °F 53.6 °F 100% 29.92 in 2.5 mi East 9.2 mph - N/A   Overcast
8:00 PM 55.4 °F 55.4 °F 100% 29.92 in 2.5 mi East 10.4 mph - N/A   Overcast
8:30 PM 53.6 °F 53.6 °F 100% 29.92 in 1.9 mi East 10.4 mph - N/A   Overcast
9:00 PM 53.6 °F 53.6 °F 100% 29.92 in 1.9 mi East 9.2 mph - N/A   Overcast
9:30 PM 53.6 °F 53.6 °F 100% 29.92 in 1.9 mi East 8.1 mph - N/A   Mostly Cloudy
10:00 PM 53.6 °F 53.6 °F 100% 29.92 in 2.5 mi ENE 9.2 mph - N/A Rain Mostly Cloudy
10:30 PM 55.4 °F 53.6 °F 94% 29.92 in 2.5 mi East 9.2 mph - N/A   Mostly Cloudy
11:00 PM 55.4 °F 53.6 °F 94% 29.92 in 3.1 mi East 9.2 mph - N/A   Mist
11:30 PM 55.4 °F 53.6 °F 94% 29.95 in 3.1 mi East 8.1 mph - N/A Rain Light Mist